When you browse on this site, cookies collect data to enhance your experience and personalize the content and advertising you see.
Visit our Privacy Policy to learn more. By continuing to use the site, you agree to this use of cookies and data.
EN

Hourly Weather Miedzylesie

Today, 8 August, Saturday

Time Temperature Precipitation Wind Pressure Humidity
00:00 +22°C° 0 mm 3 mps 756 mmHg 77%
01:00 +23°C° 0 mm 2 mps 756 mmHg 80%
02:00 +23°C° 0 mm 2 mps 756 mmHg 81%
03:00 +21°C° 0 mm 2 mps 756 mmHg 83%
04:00 +21°C° 0 mm 2 mps 755 mmHg 84%
05:00 +23°C° 0 mm 2 mps 755 mmHg 82%
06:00 +24°C° 0 mm 2 mps 755 mmHg 80%
07:00 +25°C° 0 mm 2 mps 755 mmHg 77%
08:00 +26°C° 0 mm 2 mps 755 mmHg 71%
09:00 +28°C° 0 mm 2 mps 756 mmHg 65%
10:00 +29°C° 0 mm 2 mps 756 mmHg 60%
11:00 +30°C° 0 mm 2 mps 755 mmHg 56%
12:00 +31°C° 0 mm 2 mps 755 mmHg 53%
13:00 +31°C° 0 mm 2 mps 755 mmHg 50%
14:00 +31°C° 0 mm 2 mps 754 mmHg 50%
15:00 +31°C° 0 mm 2 mps 754 mmHg 51%
16:00 +31°C° 0 mm 2 mps 754 mmHg 51%
17:00 +30°C° 0.1 mm 2 mps 754 mmHg 56%
18:00 +28°C° 0.1 mm 2 mps 754 mmHg 61%
19:00 +27°C° 0.1 mm 2 mps 754 mmHg 66%
20:00 +26°C° 0 mm 2 mps 754 mmHg 68%
21:00 +25°C° 0 mm 2 mps 754 mmHg 69%
22:00 +24°C° 0 mm 2 mps 754 mmHg 71%
23:00 +24°C° 0 mm 2 mps 754 mmHg 73%

Tomorrow, 9 August, Sunday

Time Temperature Precipitation Wind Pressure Humidity
00:00 +23°C° 0 mm 2 mps 754 mmHg 75%
01:00 +23°C° 0 mm 1 mps 754 mmHg 77%
02:00 +23°C° 0 mm 1 mps 754 mmHg 79%
03:00 +22°C° 0 mm 1 mps 753 mmHg 81%
04:00 +22°C° 0 mm 1 mps 753 mmHg 83%
05:00 +23°C° 0 mm 1 mps 753 mmHg 80%
06:00 +24°C° 0 mm 1 mps 754 mmHg 77%
07:00 +25°C° 0 mm 1 mps 754 mmHg 74%
08:00 +26°C° 0.2 mm 1 mps 754 mmHg 69%
09:00 +28°C° 0.2 mm 1 mps 753 mmHg 64%
10:00 +29°C° 0.2 mm 2 mps 753 mmHg 59%
11:00 +30°C° 0.3 mm 2 mps 753 mmHg 56%
12:00 +30°C° 0.3 mm 2 mps 753 mmHg 53%
13:00 +31°C° 0.3 mm 2 mps 753 mmHg 50%
14:00 +31°C° 0 mm 2 mps 752 mmHg 51%
15:00 +31°C° 0 mm 2 mps 752 mmHg 52%
16:00 +31°C° 0 mm 2 mps 752 mmHg 52%
17:00 +29°C° 0.1 mm 2 mps 752 mmHg 58%
18:00 +28°C° 0.1 mm 2 mps 752 mmHg 63%
19:00 +27°C° 0.1 mm 2 mps 752 mmHg 69%
20:00 +26°C° 0.1 mm 2 mps 752 mmHg 71%
21:00 +25°C° 0.1 mm 2 mps 752 mmHg 73%
22:00 +24°C° 0.1 mm 2 mps 752 mmHg 76%
23:00 +23°C° 0 mm 2 mps 752 mmHg 78%

Day after tomorrow, 10 August, Monday

Time Temperature Precipitation Wind Pressure Humidity
00:00 +23°C° 0 mm 2 mps 752 mmHg 80%
01:00 +21°C° 0 mm 2 mps 752 mmHg 82%
02:00 +21°C° 0 mm 2 mps 752 mmHg 84%
03:00 +21°C° 0 mm 2 mps 752 mmHg 86%
04:00 +20°C° 0 mm 2 mps 752 mmHg 87%
05:00 +21°C° 0 mm 2 mps 752 mmHg 85%
06:00 +23°C° 0 mm 2 mps 752 mmHg 82%
07:00 +24°C° 0 mm 2 mps 752 mmHg 80%
08:00 +25°C° 0 mm 2 mps 752 mmHg 74%
09:00 +26°C° 0 mm 3 mps 752 mmHg 68%
10:00 +27°C° 0 mm 3 mps 752 mmHg 62%
11:00 +28°C° 0 mm 3 mps 752 mmHg 57%
12:00 +29°C° 0 mm 3 mps 752 mmHg 52%
13:00 +30°C° 0 mm 3 mps 751 mmHg 48%
14:00 +30°C° 0 mm 3 mps 751 mmHg 48%
15:00 +30°C° 0 mm 3 mps 751 mmHg 49%
16:00 +30°C° 0 mm 4 mps 751 mmHg 49%
17:00 +28°C° 0 mm 3 mps 751 mmHg 55%
18:00 +27°C° 0 mm 3 mps 751 mmHg 62%
19:00 +25°C° 0 mm 3 mps 752 mmHg 68%
20:00 +25°C° 0 mm 3 mps 752 mmHg 69%
21:00 +24°C° 0 mm 3 mps 752 mmHg 71%
22:00 +23°C° 0 mm 2 mps 752 mmHg 72%
23:00 +21°C° 0 mm 3 mps 752 mmHg 74%

11 August, Tuesday

Time Temperature Precipitation Wind Pressure Humidity
00:00 +21°C° 0 mm 3 mps 752 mmHg 76%
01:00 +20°C° 0 mm 3 mps 752 mmHg 78%
02:00 +20°C° 0 mm 3 mps 753 mmHg 80%
03:00 +19°C° 0 mm 3 mps 753 mmHg 82%
04:00 +19°C° 0 mm 3 mps 753 mmHg 83%
05:00 +20°C° 0 mm 3 mps 753 mmHg 81%
06:00 +21°C° 0 mm 3 mps 753 mmHg 78%
07:00 +22°C° 0 mm 3 mps 753 mmHg 76%
08:00 +24°C° 0 mm 3 mps 753 mmHg 68%
09:00 +26°C° 0 mm 3 mps 753 mmHg 60%
10:00 +28°C° 0 mm 3 mps 754 mmHg 52%
11:00 +28°C° 0 mm 3 mps 753 mmHg 49%
12:00 +29°C° 0 mm 3 mps 753 mmHg 46%
13:00 +30°C° 0 mm 3 mps 753 mmHg 42%
14:00 +30°C° 0 mm 3 mps 753 mmHg 43%
15:00 +30°C° 0 mm 3 mps 753 mmHg 44%
16:00 +30°C° 0 mm 3 mps 753 mmHg 44%
17:00 +28°C° 0 mm 3 mps 753 mmHg 50%
18:00 +27°C° 0 mm 3 mps 753 mmHg 56%
19:00 +25°C° 0 mm 2 mps 753 mmHg 62%
20:00 +24°C° 0 mm 3 mps 753 mmHg 63%
21:00 +22°C° 0 mm 3 mps 753 mmHg 65%
22:00 +21°C° 0 mm 3 mps 753 mmHg 66%
23:00 +21°C° 0 mm 3 mps 753 mmHg 66%

12 August, Wednesday

Time Temperature Precipitation Wind Pressure Humidity
00:00 +20°C° 0 mm 3 mps 753 mmHg 67%
01:00 +19°C° 0 mm 2 mps 754 mmHg 67%
02:00 +19°C° 0 mm 2 mps 753 mmHg 70%
03:00 +18°C° 0 mm 2 mps 753 mmHg 72%
04:00 +18°C° 0 mm 2 mps 753 mmHg 75%
05:00 +19°C° 0 mm 2 mps 753 mmHg 74%
06:00 +19°C° 0 mm 2 mps 754 mmHg 73%
07:00 +20°C° 0 mm 3 mps 754 mmHg 72%
08:00 +22°C° 0 mm 3 mps 754 mmHg 66%
09:00 +24°C° 0 mm 3 mps 754 mmHg 60%
10:00 +25°C° 0 mm 3 mps 754 mmHg 54%
11:00 +26°C° 0 mm 3 mps 754 mmHg 51%
12:00 +27°C° 0 mm 3 mps 754 mmHg 48%
13:00 +27°C° 0 mm 3 mps 753 mmHg 46%
14:00 +27°C° 0 mm 2 mps 753 mmHg 46%
15:00 +27°C° 0 mm 2 mps 753 mmHg 46%
16:00 +27°C° 0 mm 2 mps 753 mmHg 46%
17:00 +26°C° 0 mm 2 mps 753 mmHg 51%
18:00 +25°C° 0 mm 2 mps 753 mmHg 56%
19:00 +23°C° 0 mm 2 mps 753 mmHg 61%
20:00 +21°C° 0 mm 2 mps 753 mmHg 60%
21:00 +20°C° 0 mm 2 mps 754 mmHg 59%
22:00 +20°C° 0 mm 2 mps 754 mmHg 58%
23:00 +19°C° 0 mm 2 mps 754 mmHg 59%

13 August, Thursday

Time Temperature Precipitation Wind Pressure Humidity
00:00 +18°C° 0 mm 2 mps 754 mmHg 61%
01:00 +18°C° 0 mm 2 mps 753 mmHg 62%
02:00 +17°C° 0 mm 2 mps 753 mmHg 64%
03:00 +17°C° 0 mm 2 mps 753 mmHg 65%
04:00 +16°C° 0 mm 2 mps 753 mmHg 67%
05:00 +17°C° 0 mm 2 mps 753 mmHg 66%
06:00 +18°C° 0 mm 2 mps 753 mmHg 64%
07:00 +19°C° 0 mm 2 mps 754 mmHg 62%
08:00 +21°C° 0 mm 2 mps 753 mmHg 57%
09:00 +24°C° 0 mm 2 mps 753 mmHg 51%
10:00 +25°C° 0 mm 2 mps 753 mmHg 45%
11:00 +26°C° 0 mm 2 mps 753 mmHg 43%
12:00 +27°C° 0 mm 2 mps 753 mmHg 40%
13:00 +27°C° 0 mm 3 mps 753 mmHg 37%
14:00 +28°C° 0 mm 2 mps 752 mmHg 37%
15:00 +28°C° 0 mm 2 mps 752 mmHg 37%
16:00 +28°C° 0 mm 2 mps 752 mmHg 36%
17:00 +26°C° 0 mm 2 mps 752 mmHg 42%
18:00 +25°C° 0 mm 2 mps 751 mmHg 47%
19:00 +23°C° 0 mm 2 mps 751 mmHg 52%
20:00 +21°C° 0 mm 2 mps 752 mmHg 55%
21:00 +20°C° 0 mm 2 mps 752 mmHg 57%
22:00 +19°C° 0 mm 3 mps 752 mmHg 60%
23:00 +19°C° 0 mm 3 mps 752 mmHg 61%
Show more